Weather in Yurove

Ukraine / Zhytomyr Region     51°21′38″N   27°49′51″E
temp.,
°C
wind,
m/s
gust,
m/s
humid.,
%
clouds,
%
prec.,
mm/h
press.,
hPa
HPBL,
m
11 may, tue
tue1100:00+9ese37820 0.0 1023137
03:00+7se38760 0.0 1024140
06:00+6se26770 0.0 1024103
09:00+13ese35550 0.0 1024435
12:00+18ese34350 0.0 10221233
15:00+20ese34360 0.0 10201328
18:00+20se34445 0.0 10191121
21:00+13e22735 0.0 101928
12 may, wed
wed1200:00+11e29840 0.0 1018161
03:00+11e411960 0.0 1017311
06:00+10ese4109598 0.0 1018525
09:00+12ese58640 0.0 1018922
12:00+15ese684912 0.0 10171537
15:00+15ese695141 0.0 10171591
18:00+13ese595593 0.0 10161521
21:00+9e24787 0.0 101461
13 may, thu
thu1300:00+7ese229220 0.0 101320
03:00+7se239583 0.0 101247
06:00+6se249785 0.0 101086
09:00+11se4770100 0.0 1010671
12:00+14sse685399 0.1 10081685
15:00+12s6972100 0.2 10081015
18:00+9se51293100 0.8 1008729
21:00+11se61492100 1.9 1006823
14 may, fri
fri1400:00+11sse61394100 0.0 1006740
03:00+11sse41196100 1.1 1006596
06:00+11se4997100 2.8 1006429
09:00+13sse468416 2.9 1006469
12:00+19sse4560100 0.0 10061125
15:00+18s4568100 1.3 10051095
18:00+14s4991100 3.4 1006333
21:00+12ssw3797100 4.9 1006209
15 may, sat
sat1500:00+12sw2795100 0.3 1007201
03:00+9sw3996100 0.3 1008237
06:00+8sw310965 0.0 1009280
09:00+13wsw488247 0.0 1009647
12:00+14wsw577593 0.6 1011889
15:00+17wsw456029 0.7 10101049
18:00+17wsw3361100 0.1 10101148
21:00+12wsw118784 0.3 101110